Jaffrey, NH

1:03 AM EDT on July 22, 2017 (GMT -0400)
Jaffrey Airport-Silver Ranch

Weather History for KAFN - February, 2013

Change the Weather History Date:

Tuesday, February 26, 2013

  Actual Average Record
Temperature  
Mean Temperature 28 °F -  
Max Temperature 36 °F 34 °F 57 °F (2002)
Min Temperature 21 °F 16 °F -13 °F (2003)
Degree Days  
Heating Degree Days 36    
Moisture  
Dew Point 25 °F    
Average Humidity 91    
Maximum Humidity 100    
Minimum Humidity 72    
Precipitation  
Precipitation 0.00 in - - ()
Sea Level Pressure  
Sea Level Pressure 30.26 in    
Wind  
Wind Speed 0 mph (SE)    
Max Wind Speed 6 mph    
Max Gust Speed -    
Visibility 4 miles    
Events Fog    
Averages and records for this station are not official NWS values.
T = Trace of Precipitation, MM = Missing Value Source: NWS Daily Summary

Daily Weather History Graph

Daily Weather History Graph

Search for Another Location

Airport or City:

Trip Planner

Search our weather history database for the weather conditions in past years. The results will help you decide how hot, cold, wet, or windy it might be!

Date:

Astronomy

Feb. 26, 2013 Rise Set
Actual Time 6:28 AM EST 5:34 PM EST
Civil Twilight 5:59 AM EST 6:02 PM EST
Nautical Twilight 5:27 AM EST 6:35 PM EST
Astronomical Twilight 4:54 AM EST 7:08 PM EST
Moon 6:50 PM EST (2/26) 6:26 AM EST (2/26)
Length of Visible Light 12h 02m
Length of Day
11h 05m
Full, 99% of the Moon is Illuminated
Feb 26
Full
Mar 4
Last Quarter
Mar 11
New
Mar 19
First Quarter
Mar 27
Full

Hourly Weather History & Observations

Time (EST) Temp. Windchill Dew Point Humidity Pressure Visibility Wind Dir Wind Speed Gust Speed Precip Events Conditions
12:52 AM 30.0 °F - 28.9 °F 96% 30.26 in 7.0 mi Calm Calm - N/A   Overcast
1:52 AM 30.0 °F - 28.9 °F 96% 30.25 in 5.0 mi Calm Calm - N/A   Overcast
2:32 AM 28.4 °F - 26.6 °F 93% 30.20 in 1.8 mi Calm Calm - N/A   Overcast
2:36 AM 28.4 °F - 26.6 °F 93% 30.20 in 0.8 mi Calm Calm - N/A   Overcast
2:52 AM 28.0 °F - 27.0 °F 96% 30.27 in 0.2 mi Calm Calm - N/A Fog Light Freezing Fog
3:02 AM 26.6 °F - 26.6 °F 100% 30.22 in 1.8 mi Calm Calm - N/A   Overcast
3:04 AM 26.6 °F - 26.6 °F 100% 30.22 in 3.0 mi Calm Calm - N/A   Overcast
3:15 AM 26.6 °F - 26.6 °F 100% 30.22 in 1.8 mi Calm Calm - N/A   Overcast
3:23 AM 26.6 °F - 26.6 °F 100% 30.23 in 1.2 mi Calm Calm - N/A   Overcast
3:30 AM 26.6 °F - 24.8 °F 93% 30.23 in 0.8 mi Calm Calm - N/A   Overcast
3:52 AM 25.0 °F - 25.0 °F 100% 30.28 in 0.5 mi Calm Calm - N/A Fog Light Freezing Fog
4:09 AM 24.8 °F - 24.8 °F 100% 30.23 in 1.2 mi Calm Calm - N/A   Overcast
4:13 AM 24.8 °F - 24.8 °F 100% 30.23 in 1.5 mi Calm Calm - N/A   Overcast
4:18 AM 24.8 °F - 24.8 °F 100% 30.23 in 1.0 mi Calm Calm - N/A   Overcast
4:27 AM 26.6 °F - 24.8 °F 93% 30.23 in 2.0 mi Calm Calm - N/A   Overcast
4:34 AM 26.6 °F - 24.8 °F 93% 30.24 in 3.0 mi Calm Calm - N/A   Mostly Cloudy
4:37 AM 24.8 °F - 24.8 °F 100% 30.23 in 1.5 mi Calm Calm - N/A   Mostly Cloudy
4:39 AM 24.8 °F - 24.8 °F 100% 30.23 in 1.0 mi Calm Calm - N/A   Mostly Cloudy
4:52 AM 23.0 °F - 23.0 °F 100% 30.29 in 0.5 mi Calm Calm - N/A Fog Light Freezing Fog
5:22 AM 21.2 °F - 19.4 °F 93% 30.25 in 0.2 mi Calm Calm - N/A Fog Light Freezing Fog
5:31 AM 23.0 °F - 21.2 °F 93% 30.24 in 0.2 mi Calm Calm - N/A Fog Light Freezing Fog
5:52 AM 21.9 °F - 21.0 °F 96% 30.31 in 0.2 mi Calm Calm - N/A Fog Light Freezing Fog
6:52 AM 21.0 °F - 19.9 °F 96% 30.32 in 0.2 mi Calm Calm - N/A Fog Light Freezing Fog
7:06 AM 23.0 °F - 21.2 °F 93% 30.26 in 0.2 mi Calm Calm - N/A Fog Light Freezing Fog
7:16 AM 21.2 °F - 21.2 °F 100% 30.26 in 0.5 mi Calm Calm - N/A Fog Light Freezing Fog
7:32 AM 24.8 °F - 23.0 °F 93% 30.27 in 0.2 mi Calm Calm - N/A Fog Light Freezing Fog
7:52 AM 25.0 °F - 25.0 °F 100% 30.34 in 0.5 mi Calm Calm - N/A Fog Light Freezing Fog
7:59 AM 24.8 °F - 24.8 °F 100% 30.28 in 1.0 mi Calm Calm - N/A   Clear
8:09 AM 26.6 °F - 26.6 °F 100% 30.28 in 0.8 mi Calm Calm - N/A   Partly Cloudy
8:14 AM 26.6 °F - 26.6 °F 100% 30.28 in 1.5 mi Calm Calm - N/A   Clear
8:17 AM 26.6 °F - 26.6 °F 100% 30.28 in 3.0 mi Calm Calm - N/A   Clear
8:52 AM 30.9 °F - 28.0 °F 89% 30.34 in 9.0 mi Calm Calm - N/A   Clear
10:44 AM 35.6 °F 30.7 °F 28.4 °F 75% 30.28 in 10.0 mi Variable 5.8 mph - N/A   Scattered Clouds
10:52 AM 35.1 °F 32.2 °F 28.0 °F 76% 30.33 in 10.0 mi Variable 3.5 mph - N/A   Scattered Clouds
11:52 AM 36.0 °F 33.3 °F 28.0 °F 73% 30.32 in 10.0 mi Variable 3.5 mph - N/A   Mostly Cloudy
12:52 PM 36.0 °F 33.3 °F 28.0 °F 73% 30.32 in 10.0 mi Variable 3.5 mph - N/A   Overcast
1:52 PM 36.0 °F 33.3 °F 28.9 °F 76% 30.31 in 10.0 mi SE 3.5 mph - N/A   Overcast
3:52 PM 35.1 °F - 28.9 °F 78% 30.28 in 10.0 mi Calm Calm - N/A   Overcast
4:52 PM 34.0 °F 31.0 °F 28.9 °F 82% 30.27 in 10.0 mi Variable 3.5 mph - N/A   Overcast
5:52 PM 34.0 °F 31.0 °F 27.0 °F 75% 30.27 in 10.0 mi Variable 3.5 mph - N/A   Overcast
6:52 PM 33.1 °F 28.7 °F 25.0 °F 72% 30.27 in 10.0 mi Variable 4.6 mph - N/A   Mostly Cloudy
7:52 PM 32.0 °F - 25.0 °F 75% 30.27 in 10.0 mi Calm Calm - N/A   Clear
8:52 PM 30.9 °F - 25.0 °F 79% 30.25 in 10.0 mi Calm Calm - N/A   Clear
9:52 PM 30.9 °F 26.2 °F 25.0 °F 79% 30.22 in 10.0 mi Variable 4.6 mph - N/A   Clear
10:52 PM 32.0 °F 28.7 °F 25.0 °F 75% 30.18 in 10.0 mi Variable 3.5 mph - N/A   Partly Cloudy